Regional Weather Roundup
Issued by NWS Albany, NY

Home | Current Version | Previous Version | Graphics & Text | Print | Product List | Glossary On
Versions: 1 2 3 4 5 6 7 8 9 10 11 12 13 14 15 16 17 18 19 20 21 22 23 24 25 26 27 28 29 30 31 32 33 34 35 36 37 38 39 40 41 42 43 44 45 46 47 48 49 50
000
ASUS41 KALY 200410
RWRALY

NEW YORK STATE HOURLY WEATHER ROUNDUP
NATIONAL WEATHER SERVICE ALBANY NY
1200 AM EDT WED SEP 20 2017

NOTE: "FAIR" INDICATES FEW OR NO CLOUDS BELOW 12,000 FEET WITH NO
SIGNIFICANT WEATHER AND/OR NO OBSTRUCTIONS TO VISIBILITY.

NYZ032-033-038>043-046>054-057>066-NYZ062>081-082-084-200500-
EAST


CITY           SKY/WX    TMP DP  RH WIND       PRES   REMARKS
ALBANY         MOCLDY    65  61  87 N5        30.00F
GLENS FALLS    PTCLDY    60  58  92 CALM      30.02F
POUGHKEEPSIE   CLOUDY    70  62  76 N6        29.92F
MONTGOMERY     MOCLDY    71  62  73 NE12      29.93F
WHITE PLAINS   MOCLDY    70  64  81 N17G25    29.87F
ISLIP          LGT RAIN  69  68  96 N14G23    29.82F FOG
NEW YORK CITY  CLOUDY    72  66  81 N12       29.85F
CENTRAL PARK   CLOUDY    72  64  76 NE9       29.89F
$$

NYZ005>009-017-018-044>046-055-056-200500-
CENTRAL


CITY           SKY/WX    TMP DP  RH WIND       PRES   REMARKS
FULTON         PTCLDY    63  61  93 CALM      30.00F
SYRACUSE       PTCLDY    62  61  96 E3        29.99F
ROME           PTCLDY    62  60  93 CALM      30.02S
ELMIRA         PTCLDY    58  58 100 CALM      30.01S FOG
BINGHAMTON     CLEAR     61  57  87 NE5       30.02F
MONTICELLO     PTCLDY    65  59  81 N6        29.99F
$$

NYZ026>034-041>043-087-200500-
NORTH


CITY           SKY/WX    TMP DP  RH WIND       PRES   REMARKS
WATERTOWN      CLEAR     61  61 100 CALM      30.00F FOG
FORT DRUM      NOT AVBL
OGDENSBURG     FAIR      64  63  95 CALM      30.02S
MASSENA        PTCLDY    63  61  93 CALM      30.03S
SARANAC LAKE   MOCLDY    50  50 100 CALM      30.06F FOG
PLATTSBURGH    CLEAR     58  57  97 CALM      30.04S
$$

NYZ001>004-010>016-019>021-085-200500-
WEST


CITY           SKY/WX    TMP DP  RH WIND       PRES   REMARKS
NIAGARA FALLS  CLEAR     67  61  81 E5        29.99S
BUFFALO        MOCLDY    66  64  93 E5        30.00S
DUNKIRK        CLEAR     62  61  96 NE3       29.99S
JAMESTOWN      CLEAR     65  61  87 CALM      30.03F
WELLSVILLE     CLEAR     61  58  90 CALM      30.06S
ROCHESTER      CLEAR     65  62  90 CALM      30.01S
PENN YAN       CLEAR     58  56  93 S3        30.02S
$$

             KEY
       WCI = WIND CHILL INDEX
       VSB = VISIBILITY
       HX  = HEAT INDEX
$$



USA.gov is the U.S. government's official web portal to all federal, state and local government web resources and services.